When you browse on this site, cookies collect data to enhance your experience and personalize the content and advertising you see.
Visit our Privacy Policy to learn more. By continuing to use the site, you agree to this use of cookies and data.
  • In Österreich
  • Länderverzeichnis
  • Für 7 Tage
  • Wassertemperatur
  • Satellitenkarten
  • Wetterkarte
  • News
  • Widgets
  • user-avatar
    Anmelden

    Stündliche Wetter Perth

    Heute, 21 Mai, Dienstag

    Zeit Temperatur Niederschläge Wind Luftdruck Luftfeuchtigkeit
    00:00 +14°C° 0 mm 0 m/S 764 mmHg 78%
    01:00 +15°C° 0 mm 1 m/S 764 mmHg 80%
    02:00 +14°C° 0 mm 1 m/S 764 mmHg 82%
    03:00 +14°C° 0 mm 1 m/S 764 mmHg 83%
    04:00 +14°C° 0 mm 1 m/S 764 mmHg 84%
    05:00 +13°C° 0 mm 1 m/S 765 mmHg 85%
    06:00 +14°C° 0 mm 1 m/S 765 mmHg 84%
    07:00 +14°C° 0 mm 2 m/S 765 mmHg 83%
    08:00 +15°C° 0 mm 2 m/S 766 mmHg 80%
    09:00 +18°C° 0 mm 1 m/S 766 mmHg 72%
    10:00 +20°C° 0 mm 1 m/S 766 mmHg 64%
    11:00 +21°C° 0 mm 1 m/S 766 mmHg 56%
    12:00 +21°C° 0 mm 1 m/S 765 mmHg 55%
    13:00 +21°C° 0 mm 1 m/S 765 mmHg 55%
    14:00 +22°C° 0 mm 1 m/S 765 mmHg 52%
    15:00 +21°C° 0 mm 1 m/S 765 mmHg 54%
    16:00 +21°C° 0 mm 1 m/S 765 mmHg 56%
    17:00 +20°C° 0 mm 1 m/S 765 mmHg 58%
    18:00 +19°C° 0 mm 1 m/S 765 mmHg 62%
    19:00 +18°C° 0 mm 1 m/S 765 mmHg 65%
    20:00 +18°C° 0 mm 1 m/S 765 mmHg 71%
    21:00 +18°C° 0 mm 1 m/S 766 mmHg 71%
    22:00 +18°C° 0 mm 1 m/S 766 mmHg 71%
    23:00 +17°C° 0 mm 2 m/S 766 mmHg 71%

    Morgen, 22 Mai, Mittwoch

    Zeit Temperatur Niederschläge Wind Luftdruck Luftfeuchtigkeit
    00:00 +16°C° 0 mm 2 m/S 766 mmHg 73%
    01:00 +15°C° 0 mm 2 m/S 766 mmHg 76%
    02:00 +14°C° 0 mm 2 m/S 765 mmHg 78%
    03:00 +14°C° 0 mm 2 m/S 765 mmHg 78%
    04:00 +14°C° 0 mm 2 m/S 765 mmHg 79%
    05:00 +14°C° 0 mm 2 m/S 765 mmHg 79%
    06:00 +14°C° 0 mm 2 m/S 765 mmHg 78%
    07:00 +14°C° 0 mm 2 m/S 766 mmHg 76%
    08:00 +14°C° 0 mm 2 m/S 766 mmHg 75%
    09:00 +16°C° 0 mm 2 m/S 766 mmHg 66%
    10:00 +20°C° 0 mm 1 m/S 766 mmHg 56%
    11:00 +20°C° 0 mm 0 m/S 766 mmHg 47%
    12:00 +22°C° 0 mm 1 m/S 765 mmHg 45%
    13:00 +23°C° 0 mm 1 m/S 764 mmHg 43%
    14:00 +23°C° 0 mm 2 m/S 764 mmHg 40%
    15:00 +21°C° 0 mm 2 m/S 764 mmHg 46%
    16:00 +20°C° 0 mm 3 m/S 764 mmHg 52%
    17:00 +19°C° 0 mm 3 m/S 764 mmHg 58%
    18:00 +18°C° 0 mm 3 m/S 764 mmHg 64%
    19:00 +17°C° 0 mm 2 m/S 764 mmHg 71%
    20:00 +16°C° 0 mm 2 m/S 765 mmHg 77%
    21:00 +16°C° 0 mm 2 m/S 765 mmHg 78%
    22:00 +16°C° 0 mm 2 m/S 765 mmHg 79%
    23:00 +15°C° 0 mm 1 m/S 765 mmHg 79%

    übermorgen, 23 Mai, Donnerstag

    Zeit Temperatur Niederschläge Wind Luftdruck Luftfeuchtigkeit
    00:00 +15°C° 0 mm 1 m/S 765 mmHg 78%
    01:00 +16°C° 0 mm 1 m/S 765 mmHg 77%
    02:00 +15°C° 0 mm 0 m/S 765 mmHg 76%
    03:00 +15°C° 0 mm 0 m/S 765 mmHg 76%
    04:00 +16°C° 0 mm 1 m/S 765 mmHg 76%
    05:00 +16°C° 0 mm 1 m/S 765 mmHg 76%
    06:00 +16°C° 0 mm 1 m/S 766 mmHg 77%
    07:00 +16°C° 0 mm 1 m/S 766 mmHg 77%
    08:00 +16°C° 0 mm 1 m/S 766 mmHg 78%
    09:00 +18°C° 0 mm 1 m/S 766 mmHg 75%
    10:00 +19°C° 0 mm 1 m/S 766 mmHg 73%
    11:00 +20°C° 0 mm 1 m/S 767 mmHg 70%
    12:00 +20°C° 0.1 mm 1 m/S 766 mmHg 67%
    13:00 +20°C° 0.1 mm 2 m/S 766 mmHg 65%
    14:00 +20°C° 0.1 mm 2 m/S 766 mmHg 63%
    15:00 +20°C° 0 mm 2 m/S 766 mmHg 64%
    16:00 +19°C° 0 mm 2 m/S 766 mmHg 66%
    17:00 +19°C° 0 mm 2 m/S 766 mmHg 67%
    18:00 +18°C° 0 mm 2 m/S 766 mmHg 71%
    19:00 +18°C° 0 mm 1 m/S 767 mmHg 75%
    20:00 +18°C° 0 mm 1 m/S 767 mmHg 78%
    21:00 +16°C° 0 mm 1 m/S 767 mmHg 80%
    22:00 +16°C° 0 mm 1 m/S 767 mmHg 81%
    23:00 +15°C° 0 mm 1 m/S 767 mmHg 83%

    24 Mai, Freitag

    Zeit Temperatur Niederschläge Wind Luftdruck Luftfeuchtigkeit
    00:00 +15°C° 0 mm 1 m/S 767 mmHg 84%
    01:00 +15°C° 0 mm 1 m/S 767 mmHg 85%
    02:00 +15°C° 0 mm 1 m/S 767 mmHg 86%
    03:00 +14°C° 0 mm 1 m/S 767 mmHg 87%
    04:00 +14°C° 0 mm 1 m/S 766 mmHg 87%
    05:00 +14°C° 0 mm 1 m/S 766 mmHg 88%
    06:00 +14°C° 0 mm 1 m/S 766 mmHg 88%
    07:00 +15°C° 0 mm 1 m/S 767 mmHg 87%
    08:00 +15°C° 0 mm 1 m/S 767 mmHg 87%
    09:00 +18°C° 0 mm 1 m/S 767 mmHg 77%
    10:00 +19°C° 0 mm 2 m/S 767 mmHg 67%
    11:00 +20°C° 0 mm 2 m/S 767 mmHg 58%
    12:00 +21°C° 0 mm 3 m/S 767 mmHg 56%
    13:00 +21°C° 0 mm 3 m/S 766 mmHg 55%
    14:00 +21°C° 0 mm 4 m/S 766 mmHg 53%
    15:00 +21°C° 0 mm 4 m/S 765 mmHg 57%
    16:00 +20°C° 0 mm 3 m/S 765 mmHg 60%
    17:00 +19°C° 0 mm 3 m/S 765 mmHg 64%
    18:00 +18°C° 0 mm 3 m/S 766 mmHg 69%
    19:00 +18°C° 0 mm 2 m/S 766 mmHg 75%
    20:00 +17°C° 0 mm 2 m/S 766 mmHg 81%
    21:00 +16°C° 0 mm 2 m/S 767 mmHg 82%
    22:00 +16°C° 0 mm 2 m/S 767 mmHg 84%
    23:00 +16°C° 0 mm 2 m/S 767 mmHg 86%

    25 Mai, Samstag

    Zeit Temperatur Niederschläge Wind Luftdruck Luftfeuchtigkeit
    00:00 +15°C° 0 mm 2 m/S 767 mmHg 86%
    01:00 +15°C° 0 mm 2 m/S 767 mmHg 86%
    02:00 +14°C° 0 mm 2 m/S 766 mmHg 86%
    03:00 +14°C° 0 mm 2 m/S 766 mmHg 85%
    04:00 +14°C° 0 mm 2 m/S 766 mmHg 84%
    05:00 +13°C° 0 mm 2 m/S 766 mmHg 84%
    06:00 +14°C° 0 mm 2 m/S 767 mmHg 82%
    07:00 +14°C° 0 mm 2 m/S 767 mmHg 81%
    08:00 +14°C° 0 mm 2 m/S 767 mmHg 79%
    09:00 +16°C° 0 mm 2 m/S 767 mmHg 70%
    10:00 +18°C° 0 mm 2 m/S 767 mmHg 61%
    11:00 +20°C° 0 mm 2 m/S 767 mmHg 53%
    12:00 +20°C° 0 mm 3 m/S 767 mmHg 50%
    13:00 +21°C° 0 mm 3 m/S 766 mmHg 48%
    14:00 +21°C° 0 mm 3 m/S 765 mmHg 45%
    15:00 +21°C° 0 mm 3 m/S 766 mmHg 47%
    16:00 +20°C° 0 mm 3 m/S 766 mmHg 49%
    17:00 +20°C° 0 mm 3 m/S 766 mmHg 51%
    18:00 +19°C° 0 mm 3 m/S 767 mmHg 54%
    19:00 +17°C° 0 mm 3 m/S 767 mmHg 58%
    20:00 +16°C° 0 mm 3 m/S 767 mmHg 61%
    21:00 +16°C° 0 mm 3 m/S 768 mmHg 63%
    22:00 +14°C° 0 mm 3 m/S 768 mmHg 64%
    23:00 +14°C° 0 mm 3 m/S 768 mmHg 66%

    26 Mai, Sonntag

    Zeit Temperatur Niederschläge Wind Luftdruck Luftfeuchtigkeit
    00:00 +13°C° 0 mm 3 m/S 768 mmHg 67%
    01:00 +13°C° 0 mm 3 m/S 768 mmHg 67%
    02:00 +13°C° 0 mm 3 m/S 768 mmHg 68%
    03:00 +12°C° 0 mm 3 m/S 768 mmHg 69%
    04:00 +12°C° 0 mm 3 m/S 768 mmHg 70%
    05:00 +12°C° 0 mm 4 m/S 768 mmHg 72%
    06:00 +12°C° 0 mm 4 m/S 768 mmHg 73%
    07:00 +12°C° 0 mm 4 m/S 768 mmHg 74%
    08:00 +12°C° 0 mm 4 m/S 769 mmHg 76%
    09:00 +14°C° 0 mm 4 m/S 769 mmHg 67%
    10:00 +17°C° 0 mm 4 m/S 769 mmHg 59%
    11:00 +19°C° 0 mm 4 m/S 768 mmHg 51%
    12:00 +20°C° 0 mm 4 m/S 768 mmHg 47%
    13:00 +20°C° 0 mm 3 m/S 767 mmHg 44%
    14:00 +21°C° 0 mm 3 m/S 766 mmHg 41%
    15:00 +21°C° 0 mm 3 m/S 767 mmHg 42%
    16:00 +20°C° 0 mm 3 m/S 767 mmHg 44%
    17:00 +19°C° 0 mm 3 m/S 767 mmHg 45%
    18:00 +18°C° 0 mm 3 m/S 767 mmHg 48%
    19:00 +17°C° 0 mm 3 m/S 767 mmHg 50%
    20:00 +16°C° 0 mm 3 m/S 768 mmHg 53%
    21:00 +15°C° 0 mm 4 m/S 768 mmHg 54%
    22:00 +14°C° 0 mm 4 m/S 768 mmHg 55%
    23:00 +14°C° 0 mm 4 m/S 768 mmHg 56%
    Mehr zeigen